This demonstration page uses our WeatherBlox Daily Observations layout. Learn more.

Left ArrowRight Arrow

41.55636, -103.73856

Hourly Observations for April 6, 2020

Temp ( °F °C ) Dew Point ( °F °C ) Humidity (%) Winds ( mph kmh ) Pressure ( in mb ) Visibility ( mi km ) Precip ( " mm )
6:58 pm 18:58 Mostly Cloudy 58 14.7 29 -1.6 33 33 NE 6 9 29.70 1006 10 16 0.00 0.00
7:58 pm 19:58 Mostly Cloudy 56 13.1 30 -1 38 38 ESE 13 20 29.71 1006 10 16 0.00 0.00
8:58 pm 20:58 Mostly Cloudy 55 12.7 30 -1 39 39 E 6 9 29.72 1007 10 16 0.00 0.00
9:58 pm 21:58 Mostly Cloudy 56 13.3 31 -0.5 39 39 SE 14 22 29.72 1006 10 16 0.00 0.00
10:58 pm 22:58 Mostly Clear 53 11.4 37 2.9 56 56 SSE 15 24 29.70 1006 10 16 0.00 0.00
11:58 pm 23:58 Mostly Clear 47 8.1 38 3.5 73 73 E 6 9 29.73 1007 10 16 0.00 0.00
12:58 am 00:58 Clear 39 4 36 2.1 88 88 S 6 9 29.74 1007 10 16 0.00 0.00
1:58 am 01:58 Clear 42 5.7 38 3.1 84 84 Calm 29.73 1007 10 16 0.00 0.00
2:58 am 02:58 Clear 40 4.3 36 2.1 86 86 SW 3 6 29.73 1007 10 16 0.00 0.00
3:58 am 03:58 Clear 38 3.3 33 0.4 82 82 WSW 5 7 29.73 1007 10 16 0.00 0.00
4:58 am 04:58 Clear 34 1.2 31 -0.4 89 89 W 5 7 29.74 1007 10 16 0.00 0.00
5:58 am 05:58 Clear 36 2.3 31 -0.8 80 80 W 5 7 29.75 1008 10 16 0.00 0.00
6:58 am 06:58 Sunny 33 0.7 29 -1.4 86 86 Calm 29.78 1009 10 16 0.00 0.00
7:58 am 07:58 Sunny 37 2.7 33 0.6 86 86 SW 3 6 29.80 1009 10 16 0.00 0.00
10:58 am 10:58 Sunny 70 20.9 19 -7.3 14 14 WSW 13 20 29.70 1006 10 16 0.00 0.00
11:58 am 11:58 Sunny 72 22.3 17 -8.4 12 12 SW 23 37 29.70 1006 10 16 0.00 0.00
12:58 pm 12:58 Sunny 73 23 15 -9.2 11 11 SW 20 31 29.70 1006 10 16 0.00 0.00
1:58 pm 13:58 Mostly Sunny 72 22.1 14 -10.2 11 11 SSW 20 31 29.69 1005 10 16 0.00 0.00
2:58 pm 14:58 Sunny 73 22.5 11 -11.4 9 9 WSW 9 15 29.67 1005 10 16 0.00 0.00
3:58 pm 15:58 Mostly Sunny 74 23.1 12 -10.9 9 9 WSW 17 28 29.67 1005 10 16 0.00 0.00
4:58 pm 16:58 Mostly Sunny 72 22.2 12 -11.2 10 10 SW 8 13 29.68 1005 10 16 0.00 0.00
5:58 pm 17:58 Mostly Cloudy 69 20.5 16 -8.7 13 13 W 3 6 29.69 1006 10 16 0.00 0.00

Powered by AerisWeather